www.pogodaiklimat.ru

Погода и климат >> Архив погоды >> Мозамбик >> Beira


ПОГОДА в Beira

  • Прогноз погоды в Beira
  • Монитор погоды в Beira
  • Климат города

АРХИВ ПОГОДЫ в Beira

Время (UTC), дата Ветер
(напр.,м/с)
 
Видим.   Явления Облачность Т
(С)
Тd
(С)
f
(%)
Тe
(С)
Тes
(С)
Комфортность P
(гПа)
Po
(гПа)
Тmin
(С)
Tmax
(С)
R
(мм)
R24
(мм)
S
(см)
12 11.12 С 6 30 км 4/3 600 м
[Cu med, cong Ci fib]
+28.2 +21.1 65 +35 +40 очень
душно
1012.9 1013.0
15 11.12 С 6 25 км 8/3 300 м
[Cu med, cong Ac As Cs]
+27.2 +22.8 77 +36 +37 очень
душно
1012.2 1012.0
18 11.12 СВ 5 20 км 8/6 300 м
[Cu Sc Ac As]
+25.8 +22.0 80 +33 +33 очень
душно
1012.9 1013.0 +29.3
21 11.12 В 2 20 км 8/6 300 м
[Cu Sc Ac As]
+24.6 +23.2 92 +33 +33 очень
душно
1013.3 1013.0
00 12.12 штиль 0 20 км 5/5 300 м
[Cu Sc Ac As]
+23.5 +21.2 87 +30 +30 очень
душно
1012.3 1012.0
03 12.12 штиль 0 25 км 4/4 600 м
[Cu Sc Ci fib]
+23.2 +21.1 88 +31 +31 очень
душно
1012.3 1012.0
06 12.12 СВ 4 20 км 6/3 600 м
[Cu Sc Ac trans]
+27.0 +21.5 72 +34 +38 очень
душно
1013.2 1013.0 +22.6
09 12.12 С 4 30 км 6/6 600 м
[Cu Sc Ac und Ci fib]
+30.4 +23.2 65 +41 +47 опасность
перегрева
1011.9 1012.0
12 12.12 штиль 0 50 км ?/? +30.5 +23.7 67 -16 -16 1009.9 1010.0
15 12.12 В 9 30 км 1/1 600 м
[Cb calv]
+28.8 +23.7 74 +39 +40 очень
душно
1009.6 1010.0
18 12.12 С 5 20 км 3/3 600 м
[Cu Sc]
+27.0 +24.2 85 +38 +38 очень
душно
1010.4 1010.0 +31.5
06 13.12 СВ 7 30 км 6/1 600 м
[Cu Sc Ac trans]
+28.8 +24.9 79 +41 +43 опасность
перегрева
1010.7 1011.0 +23.6
09 13.12 СВ 4 30 км 5/3 600 м
[Cu Sc Ac trans Ci fib]
+33.6 +24.6 59 +46 +55 опасность
перегрева
1008.8 1009.0
15 13.12 В 7 15 км 9/6 600 м
[Cb cap Ac trans]
+29.4 +23.5 71 +40 +40 очень
душно
1005.2 1005.0
03 14.12 С 4 15 км 4/4 300 м
[Cu Sc]
+25.2 +22.2 83 +33 +33 очень
душно
1007.9 1008.0
09 14.12 С 6 15 км 3/3 300 м
[Cu med, cong Ac trans]
+35.6 +22.7 47 +45 +51 опасность
перегрева
1007.1 1007.0
15 14.12 В 3 15 км 9/9 300 м
[Cu Sc Ac As]
+29.7 +19.0 53 +35 +35 очень
душно
1005.8 1006.0
18 14.12 В 2 15 км 9/9 600 м
[Cu Sc Ac As]
+28.9 +24.9 79 +41 +41 опасность
перегрева
1008.5 1009.0 +36.0
21 14.12 ЮВ 5 15 км 9/6 300 м
[Cu Sc Ac As]
+27.4 +25.4 89 +40 +40 очень
душно
1010.2 1010.0
00 15.12 Ю 9 15 км 9/9 300 м
[Cu Sc]
+27.4 +25.4 89 +40 +40 очень
душно
1010.2 1010.0
03 15.12 Ю 8 15 км 10/10 300 м
[Cu Sc]
+26.4 +23.1 82 +35 +35 очень
душно
1013.0 1013.0
06 15.12 С 9 20 км 9/9 300 м
[Cu Sc]
+27.6 +22.6 74 +36 +36 очень
душно
1016.0 1016.0 +25.8
12 15.12 Ю 9 25 км 9/9 300 м
[Cu Sc]
+27.5 +22.6 75 +36 +37 очень
душно
1016.1 1016.0
18 15.12 Ю 6 25 км 9/9 300 м
[Cu Sc]
+26.0 +21.8 78 +33 +33 очень
душно
1017.2 1017.0 +29.6
21 15.12 СВ 7 20 км 8/8 300 м
[Cu Sc]
+25.4 +22.0 81 +33 +33 очень
душно
1018.1 1018.0
03 16.12 С 7 15 км 5/5 300 м
[Cu Sc Ci fib]
+24.8 +22.3 86 +32 +32 очень
душно
1016.8 1017.0
06 16.12 С 5 20 км 8/5 300 м
[Cu Sc Cs]
+26.8 +19.9 66 +33 +35 очень
душно
1018.0 1018.0 +24.8
12 16.12 С 6 25 км 6/5 300 м
[Cu med, cong Ci fib]
+27.8 +22.5 73 +37 +39 очень
душно
1016.6 1017.0
15 16.12 штиль 0 50 км ?/? +26.6 +20.2 68 +33 +33 очень
душно
1015.0 1015.0
18 16.12 С 4 25 км 4/4 300 м
[Cu Sc Ci fib]
+24.6 +19.6 74 +30 +30 очень
душно
1016.0 1016.0 +29.2
09 17.12 В 4 25 км 1/1 600 м
[Cu med, cong]
+28.8 +22.0 67 +37 +50 очень
душно
1014.9 1015.0
12 17.12 В 6 25 км 1/1 600 м
[Cu med, cong]
+28.9 +22.0 66 +37 +43 очень
душно
1012.6 1013.0
15 17.12 ЮВ 5 25 км ясно +27.5 +21.1 68 +35 +36 очень
душно
1011.7 1012.0
18 17.12 В 4 25 км ясно +25.6 +22.0 81 +33 +33 очень
душно
1012.5 1013.0 +30.2
03 18.12 штиль 0 50 км дымка ?/? +20.3 +19.3 94 +24 +24 комфорт 1012.0 1012.0
06 18.12 СВ 3 15 км 4/4 300 м
[Cu med, cong]
+26.0 +21.7 77 +33 +38 очень
душно
1013.5 1014.0 +21.8

 

Местоположение метеостанции Beira (Мозамбик): широта -19.80 долгота 34.90 высота над уровнем моря 16 м.

В архиве по умолчанию представлена погода в Beira за последнюю неделю. Архивные данные за месяц целиком и за предыдущие месяцы, начиная с января 2011 года, Вы можете получить, выбрав интересующий диапазон дат из раскрывающегося списка и нажав кнопку "Ввод!".

Внимание! Время в таблицах - всемирное. Для получения местного времени необходимо прибавить поправку, которая в Beira равна 2 ч.

Смотрите также архив погоды в соседних городах и на ближайших метеорологических станциях:

Погода в Chimoio (Мозамбик) (168 км)
Погода в Caia (Мозамбик) (224 км)
Погода в Chipinge (Зимбабве) (243 км)
Погода в Mukandi (Зимбабве) (246 км)
Погода в Vilanculos (Мозамбик) (249 км)
Погода в Catandica (Мозамбик) (265 км)
Погода в Massangena (Мозамбик) (280 км)
Погода в Wyanga (Зимбабве) (282 км)
Погода в Quelimane (Мозамбик) (298 км)
Погода в Rusape (Зимбабве) (323 км)

Пояснения к столбцам:

Ветер - указаны скорость ветра в м/с - средняя за 10 мин, порывы в срок и между сроками (в фигурных скобках) и направление, откуда дует ветер: С - северный, СВ - северо-восточный, В - восточный, ЮВ - юго-восточный, Ю - южный, ЮЗ - юго-западный, З - западный, СЗ - северо-западный.
Видимость - горизонтальная дальность видимости в метрах или километрах. При видимости от 1 до 10 км при отсутствии осадков обычно наблюдается дымка, при ухудшении видимости до 1 км и менее - туман. В сухую погоду видимость может ухудшаться дымом, пылью или мглою.
Явления - указаны атмосферные явления, наблюдавшиеся в срок или в последний час перед сроком; фигурными скобками обозначены явления, наблюдавшиеся между сроками (за 1-3 часа до срока); квадратными скобками обозначены град или гололедные отложения с указанием их диаметра в мм.
Облачность - указаны через наклонную черту общая и нижняя облачность в баллах и высота нижней границы облаков в метрах; квадратными скобками обозначены формы облаков: Ci - перистые, Cs - перисто-слоистые, Cc - перисто-кучевые, Ac - высококучевые, As - высокослоистые, Sc - слоисто-кучевые, Ns - слоисто-дождевые, Cu - кучевые, Cb - кучево-дождевые. Подробнее классификацию облаков см. в Атласе облаков (PDF).
T - Температура воздуха - температура, измеренная на высоте 2 м над землей.
Td - Температура точки росы - температура, при понижении до которой содержащийся в воздухе водяной пар достигнет насыщения.
f - Относительная влажность воздуха - влажноcть воздуха, измеренная на высоте 2 м над землей.
Te - Эффективная температура - температура, которую ощущает одетый по сезону человек в тени. Характеристика душности погоды. При расчете учитывается влияние влажности воздуха и скорости ветра на теплоощущения человека.
Tes - Эффективная температура на солнце - температура, которую ощущает человек, с поправкой на солнечный нагрев. Характеристика знойности погоды. Зависит от высоты солнца над горизонтом, облачности и скорости ветра. Ночью, в пасмурную погоду, а также при ветре 12 м/с и более поправка равна нулю.
P - Атмосферное давление - приведенное к уровню моря атмосферное давление.
Po - Атмосферное давление - измеренное на уровне метеостанции атмосферное давление.
Tmin - Минимальная температура - минимум температуры воздуха на высоте 2 м над землей.
Tmax - Максимальная температура - максимум температуры воздуха на высоте 2 м над землей.
R - Количество осадков - Количество выпавших осадков за период времени, мм. При наведении курсора мыши на число - период времени, за который выпало указанное количество осадков.
R24 - Количество осадков - Количество выпавших осадков за 24 часа, мм.
S - Снежный покров - Высота снежного покрова, см. При наведении курсора мыши на число - состояние снежного покрова и степень покрытия местности в баллах.